{"data":{"norad_id":64436,"epoch":"2026-05-24T23:44:11.063616Z","epoch_age_seconds":69801,"freshness":"FRESH","line1":"1 64436U 25129AA  26144.98901694  .00002239  00000+0  19532-3 0  9993","line2":"2 64436  70.0008 242.1666 0003080 269.4484  90.6322 14.98336124 52656","mean_motion":14.98336124,"eccentricity":0.000308,"inclination_deg":70.0008,"raan_deg":242.1666,"arg_perigee_deg":269.4484,"mean_anomaly_deg":90.6322,"bstar":0.00019532,"rev_number":5265,"period_min":96.106606317128,"perigee_km":569.89629946655,"apogee_km":574.17760662163,"semimajor_km":6950.1739530441,"source":"CELESTRAK","updated_at":"2026-05-25T13:38:20.445307Z"}}